Location: Gerlach
(40.6516°N, 119.3568°W)
Time: 04:38:41
(UTC-07:00)

Explorer 11/Cluster Stage 4 - Pass Details

Date: 31 January 2023
Orbit: 466 x 1241 km, 28.8° (Epoch: 02 April)

Event Time Altitude Azimuth Distance (km) Brightness Sun altitude
Rises 05:56:02 0° 228° (SW) 4,126 9.9 -13.9°
Reaches altitude 10° 05:59:26 10° 217° (SW) 3,192 9.4 -13.3°
Maximum altitude 06:05:51 26° 165° (SSE) 2,196 9.2 -12.1°
Drops below altitude 10° 06:12:04 10° 112° (ESE) 3,076 11.1 -11.0°
Sets 06:15:16 0° 100° (E) 3,950 12.5 -10.4°
